User: anonymous   Login
Location: Unspecified
(0.0000°N, 0.0000°E)
Time: 18:19:11
(UTC+02:00)
Language:

ARIANE 44L R/B - Orbit

View from above orbital plane
View from above orbital plane
View from above satellite
View from above satellite

Ground track
Ground track

The orbit data is extracted from the following two-line orbital elements,

1 26901U 01039B   17262.60849451 +.00011920 +00000-0 +22307-2 0  9995
2 26901 007.3512 072.6577 6878728 098.2704 338.8111 02.80869361146254
Epoch (UTC): 19 September 2017 14:36:13
Eccentricity: 0.6878728
inclination: 7.3512°
perigee height: 245 km
apogee height: 29437 km
right ascension of ascending node: 72.6577°
argument of perigee: 98.2704°
revolutions per day: 2.80869361
mean anomaly at epoch: 338.8111°
orbit number at epoch: 14625

The dashed part of the orbit path shows where the satellite is in the earth's shadow,  

DLR